RH
75 74 81 87 91 90 60 44 39 36 49 48 39 45 48 50 54 69 77 49 53 66 78 77 83 78 79 80 81 81 82 78 79 82 80 80 79 77 75 74 73 73 73 75 71 72 72 73 72
77 77 91 93 85 77 64 48 49 47 44 43 44 45 54 71 70 84 68 54 56 66 77 82 86 81 80 81 81 81 79 76 78 80 79 79 79 77 75 72 72 73 73 73 70 71 71 72 73
74 70 94 86 81 76 69 46 45 41 39 41 47 48 59 78 77 76 74 57 62 68 84 86 83 82 79 82 81 79 80 79 78 77 76 76 76 76 72 71 72 72 71 71 70 71 71 72 74
72 92 75 75 65 52 49 44 38 36 36 38 46 56 59 60 70 70 67 66 71 85 91 84 83 78 80 80 82 81 82 80 79 77 76 75 75 75 73 73 72 71 70 71 71 72 72 70 73
70 78 78 72 57 47 40 32 35 35 37 46 47 58 72 64 71 75 73 66 82 92 86 82 83 83 82 82 81 81 80 80 79 77 75 76 76 75 75 74 76 74 73 74 73 74 72 69 72
71 79 76 70 52 39 40 33 35 34 39 46 50 57 70 72 80 79 74 75 82 90 85 85 82 84 82 79 78 78 77 76 76 76 73 74 76 78 76 76 75 76 76 77 74 75 69 71 73
65 80 76 66 47 41 38 34 35 37 37 43 44 58 76 82 77 79 79 80 84 83 88 88 84 80 78 78 77 77 76 76 76 76 79 78 76 76 75 76 78 75 75 75 75 73 72 72 73
75 76 77 70 51 44 38 36 35 37 38 37 40 56 68 75 75 77 82 86 87 87 90 92 94 85 86 81 81 80 80 77 76 77 77 78 77 74 75 80 80 76 75 77 72 69 73 72 73
66 71 70 54 48 39 41 36 32 36 39 38 40 43 48 68 74 80 87 92 91 92 96 97 96 95 95 92 84 82 76 77 75 73 73 76 84 78 78 79 74 77 71 69 70 73 76 74 74
80 73 56 47 48 46 34 31 32 38 38 40 37 41 56 71 78 85 90 95 94 93 98 97 96 95 95 83 92 93 87 84 88 84 85 89 90 93 83 80 72 71 72 71 74 76 78 76 77
74 70 50 44 46 44 44 37 31 36 37 35 45 46 62 71 78 81 84 88 90 88 91 94 94 95 94 88 96 94 94 93 94 94 94 96 95 94 92 96 87 82 75 79 78 79 81 84 85
64 53 52 47 40 47 46 47 40 35 32 28 44 42 58 70 74 76 80 83 86 87 88 90 91 93 94 93 95 93 94 95 96 95 95 98 97 97 98 97 96 93 91 90 91 89 90 87 88
44 32 24 27 28 34 40 41 42 39 31 28 42 50 63 64 66 68 70 76 83 88 86 90 90 90 82 95 97 95 92 91 93 96 96 97 96 97 98 97 96 94 92 92 94 94 92 93 90
27 22 20 20 20 25 38 36 40 24 32 27 38 54 60 59 61 65 69 76 81 81 84 86 91 91 82 94 95 91 92 92 94 97 94 97 97 95 96 96 96 95 94 95 92 96 95 93 89
21 21 20 19 23 17 31 14 17 14 17 39 42 55 58 58 54 62 63 70 73 75 76 84 89 89 92 92 94 94 92 93 97 97 97 96 96 96 96 95 96 94 95 96 95 95 96 95 90
20 26 26 19 15 13 14 18 14 15 13 26 51 49 59 59 54 56 60 65 70 71 77 80 79 87 90 90 91 89 89 92 93 92 96 96 96 94 96 97 94 94 97 96 98 95 96 96 91
22 32 24 18 17 16 16 17 15 13 13 14 50 50 50 57 56 58 60 62 67 71 76 80 83 86 88 89 90 89 91 90 90 92 92 95 94 93 94 95 96 97 98 99 98 98 94 95 92
23 24 22 21 18 16 19 17 15 14 13 13 25 52 50 49 48 50 54 61 64 70 74 79 82 84 87 86 89 90 93 90 89 89 88 91 92 93 91 94 95 97 98 98 98 97 97 94 96
20 23 20 17 16 18 19 19 15 14 14 17 24 53 54 48 50 48 46 59 63 69 75 80 84 85 86 86 90 92 91 93 90 88 86 89 89 91 94 90 94 94 93 94 96 97 97 98 96
19 22 21 18 18 20 17 16 16 16 22 26 34 42 47 55 52 49 51 48 62 67 73 79 83 84 84 81 83 84 85 87 86 86 87 88 90 89 90 92 95 95 96 96 98 97 96 96 98
23 24 24 19 16 16 16 18 22 27 38 39 41 46 45 48 51 52 56 53 50 66 71 74 79 81 83 82 82 92 92 96 95 92 86 86 88 88 88 90 90 96 97 94 96 97 95 96 99
45 18 21 19 17 18 19 23 27 46 48 47 49 46 45 48 56 54 55 58 56 51 64 71 77 80 82 82 82 86 82 87 86 84 86 86 85 87 86 88 90 93 97 97 93 96 96 95 97
18 16 16 16 20 25 25 22 21 57 54 55 55 50 49 49 53 58 62 68 65 64 60 71 79 80 82 83 79 79 80 76 83 85 91 91 91 86 84 83 89 94 95 95 95 96 96 97 97
20 21 24 28 26 28 26 26 26 50 57 60 57 56 54 53 54 58 64 72 77 73 71 74 83 83 83 84 81 82 83 80 84 85 90 89 89 90 91 89 91 92 95 95 96 96 97 98 98
21 30 38 35 37 35 34 30 26 49 55 59 60 60 59 62 65 66 67 70 75 78 79 84 81 84 82 84 85 84 80 81 85 85 84 89 88 90 92 95 96 96 94 94 97 98 98 98 98
26 31 40 49 44 38 33 33 42 51 60 61 59 59 62 65 68 73 75 79 82 76 85 92 79 81 84 83 84 80 82 76 78 82 80 81 80 79 84 92 92 92 93 94 98 98 98 98 98
32 32 32 38 52 39 38 42 42 61 57 57 59 68 73 80 79 82 82 84 88 88 87 91 92 84 86 83 82 82 84 80 77 84 80 78 81 78 86 90 90 90 92 95 98 99 98 98 97
24 29 45 52 61 63 54 51 45 48 50 56 63 69 72 88 91 93 86 86 88 90 91 87 90 93 90 90 84 81 84 82 79 85 83 81 83 83 88 91 91 91 92 94 96 98 97 98 99
33 40 47 51 59 62 63 50 46 51 65 66 68 71 73 78 94 89 85 85 91 86 89 86 87 89 88 94 91 86 81 84 80 81 86 86 83 86 87 89 91 92 94 95 96 96 96 96 96
33 44 46 52 52 59 62 59 39 68 66 75 76 75 73 80 90 87 90 86 90 95 91 93 92 94 94 92 91 91 87 83 83 80 81 87 89 89 86 87 90 91 92 94 95 95 90 93 94
Wind_Speed
8 4 1 1 3 4 4 7 4 5 1 1 9 5 7 3 5 5 1 11 12 15 14 14 15 14 17 16 15 16 17 18 17 17 17 18 18 17 18 16 16 14 14 13 13 11 12 11 10
5 2 2 2 5 5 6 4 10 5 4 5 4 2 3 2 3 6 9 10 14 14 13 12 15 16 16 16 15 16 16 18 17 16 16 16 17 16 17 16 15 14 14 14 12 11 10 10 11
8 5 2 3 2 2 4 5 6 5 5 1 2 2 1 4 4 9 6 13 14 12 12 11 16 16 17 17 16 15 16 16 17 16 16 15 16 16 16 15 14 13 12 12 11 11 10 10 12
3 2 3 5 4 3 4 9 4 5 3 6 3 3 3 2 6 6 15 14 14 9 9 14 17 17 18 18 17 17 16 17 15 16 16 15 15 15 15 15 15 12 12 12 10 13 11 11 11
3 3 5 2 3 2 5 6 4 5 2 4 3 3 3 4 7 11 15 15 15 10 9 11 16 16 16 17 17 16 15 15 16 16 14 14 14 14 15 15 14 12 13 12 11 13 13 12 11
3 3 5 1 3 2 1 4 6 4 7 2 5 4 2 1 8 9 13 13 13 14 11 10 15 16 17 17 17 17 16 16 16 16 15 14 14 14 15 16 15 14 13 12 13 13 13 12 11
4 3 4 4 3 3 3 4 6 7 1 5 8 6 2 3 5 7 9 10 10 12 12 9 10 14 19 17 17 17 17 15 15 15 16 15 15 13 14 12 14 14 13 11 12 11 12 13 11
4 3 2 2 2 3 4 3 4 8 3 5 6 4 4 7 14 7 6 8 8 9 10 9 7 8 8 10 17 16 16 16 17 16 15 15 16 15 13 11 9 12 12 11 11 11 12 11 9
3 4 3 4 4 4 2 2 3 2 3 4 3 6 1 16 18 10 7 5 6 7 7 7 8 6 6 6 10 14 17 16 16 15 15 13 4 7 9 10 12 12 12 11 11 11 11 10 8
3 3 7 4 4 5 3 5 3 2 4 5 3 2 16 19 17 16 13 12 11 12 10 9 9 7 7 7 6 6 6 4 5 5 6 3 4 4 5 9 12 12 11 13 10 11 10 9 3
3 4 4 7 9 5 5 6 5 7 10 8 9 11 19 19 14 17 11 14 16 14 10 11 11 8 8 7 4 4 2 3 3 5 4 4 3 2 3 2 2 2 9 3 6 4 2 4 3
2 8 6 7 4 3 4 2 3 12 16 8 11 14 18 18 14 15 16 14 14 13 14 13 12 11 9 4 4 5 4 3 3 4 6 4 3 3 2 2 2 3 1 3 3 2 3 4 4
4 6 5 7 8 6 4 10 5 7 17 13 10 11 16 20 26 22 20 14 13 15 14 14 13 12 13 8 5 5 6 5 5 4 5 5 5 4 3 3 3 3 3 3 3 3 3 4 4
3 7 7 9 7 7 7 6 5 10 10 11 9 16 21 25 23 17 17 20 19 16 16 14 14 13 14 10 10 8 7 6 6 5 6 6 5 5 5 4 3 2 2 3 3 3 4 4 4
2 7 10 11 1 3 3 7 7 6 7 8 4 16 20 26 17 24 19 17 23 20 17 16 15 13 12 11 9 7 7 7 6 6 7 8 7 6 6 4 4 4 3 4 3 2 2 2 3
5 5 5 6 5 5 4 9 14 4 7 7 7 14 18 22 22 11 15 16 15 14 17 15 14 15 14 12 8 7 6 7 7 6 6 9 8 8 6 5 5 5 4 4 3 3 3 3 4
6 2 3 9 2 2 3 9 10 11 5 9 9 14 16 16 17 9 9 11 12 11 11 14 14 16 16 13 9 8 7 7 7 6 7 9 9 9 7 6 5 6 5 4 4 4 3 3 4
3 4 4 6 2 7 5 8 9 5 6 9 5 13 14 15 20 8 10 12 11 12 12 12 12 13 14 10 8 7 5 7 7 8 9 11 9 10 9 7 7 6 5 5 5 6 5 4 4
1 3 5 9 5 5 7 9 11 11 8 11 8 4 8 17 1 7 10 15 15 14 15 16 15 15 11 10 10 9 10 8 7 8 11 11 11 12 10 7 8 7 8 9 8 5 7 6 4
4 3 7 10 7 6 8 11 6 10 6 6 9 10 5 2 4 7 6 12 13 16 17 17 18 16 14 11 10 7 8 8 9 7 8 10 10 11 10 9 8 8 6 7 8 8 3 4 6
4 5 5 7 6 4 6 8 8 7 8 10 10 4 7 7 5 4 6 13 14 18 21 20 18 16 16 15 10 3 3 3 4 5 6 8 11 11 11 11 9 9 8 8 9 9 9 5 5
1 9 2 3 4 1 4 4 3 5 9 10 13 13 12 7 1 2 6 7 11 17 14 18 19 19 17 17 13 16 12 9 7 8 8 7 9 10 11 11 11 10 8 8 9 7 7 5 6
5 0 5 3 3 2 2 5 9 2 4 6 10 13 12 10 12 14 8 8 6 4 5 13 14 17 18 19 17 14 14 10 6 6 8 9 9 10 11 12 11 10 8 9 9 8 10 7 4
1 3 6 4 4 3 4 5 7 3 3 3 3 7 10 13 12 12 10 6 8 8 5 5 15 17 18 19 20 19 17 13 9 11 9 9 7 8 11 11 11 11 10 10 9 9 7 6 6
7 7 5 5 5 6 0 2 9 2 4 5 6 7 7 7 10 12 12 15 9 7 7 10 17 20 20 20 20 20 19 18 16 14 12 11 9 8 11 12 11 9 11 10 8 8 9 8 8
4 6 6 5 4 6 3 5 5 3 2 4 5 6 6 6 7 10 12 12 12 11 9 10 10 14 17 18 19 18 16 12 11 13 11 11 11 12 11 12 12 12 11 10 8 7 10 10 10
2 4 3 5 2 1 4 6 5 2 4 5 7 6 7 7 6 7 10 10 12 10 9 10 6 7 12 15 14 16 12 16 15 16 15 11 11 10 11 12 13 12 11 10 10 7 9 7 10
6 2 3 5 1 3 5 5 5 2 8 7 9 7 7 5 6 7 8 10 13 9 7 7 8 2 5 9 12 12 14 17 16 12 16 15 11 11 10 12 12 11 11 11 12 8 8 8 7
5 4 6 5 4 3 2 8 7 6 4 8 8 7 8 8 6 6 6 9 12 9 6 5 6 6 4 3 9 12 16 14 13 11 11 12 12 12 12 12 12 12 11 10 10 10 10 11 9
2 3 5 6 6 2 3 9 3 6 6 6 8 8 7 7 7 6 5 6 8 10 9 9 7 6 6 6 5 8 14 13 14 15 14 11 12 11 12 11 11 11 10 10 11 11 10 11 11
Wind_Direction
208 256 220 202 54 56 342 352 284 12 355 210 123 157 188 140 162 210 286 148 127 141 150 162 156 150 139 138 133 130 130 131 127 127 136 139 135 139 137 140 139 137 135 135 139 142 139 138 135
166 190 268 109 67 26 311 334 352 355 32 84 70 103 172 130 97 110 119 145 139 139 152 159 165 153 146 139 138 140 139 132 135 137 139 140 141 147 148 148 149 147 142 142 140 139 142 141 137
164 231 355 55 73 65 299 294 307 48 134 139 25 16 138 143 85 151 125 138 131 145 149 159 159 155 154 147 147 150 144 143 141 137 140 145 146 156 156 154 156 156 151 142 154 142 146 146 138
170 340 16 67 330 99 313 297 327 153 313 91 99 24 25 297 158 171 134 133 135 139 145 160 159 160 157 152 153 157 149 146 142 144 150 151 156 159 161 163 163 165 157 156 156 149 152 147 144
23 42 55 337 317 317 301 299 31 324 357 47 75 29 36 12 86 135 138 144 142 142 152 157 161 159 161 159 160 157 151 148 148 149 156 156 161 157 161 163 161 168 169 158 148 152 148 146 154
55 95 65 21 329 198 332 268 302 251 102 149 82 100 166 175 127 154 149 152 149 144 153 159 163 163 164 167 167 164 161 160 159 160 161 160 166 161 159 163 162 165 165 163 150 156 145 149 155
137 94 182 200 224 150 221 181 280 291 218 167 141 135 158 153 133 153 147 137 142 144 146 157 160 172 171 177 176 174 170 167 170 171 168 168 171 166 164 166 166 166 170 169 159 156 153 157 156
119 90 85 281 236 271 270 201 198 262 324 104 136 205 196 173 137 133 136 131 140 149 151 153 154 167 172 177 180 180 175 175 175 177 168 170 171 167 169 161 166 170 172 168 163 167 161 157 164
128 66 170 226 189 250 252 230 222 289 51 334 117 107 147 131 130 131 139 125 145 158 163 152 157 154 159 165 184 182 184 187 180 183 182 176 165 167 177 163 176 172 170 174 175 173 160 159 169
89 108 224 210 206 233 238 223 234 27 261 192 134 215 132 146 153 152 169 170 176 179 180 166 164 161 158 171 175 164 181 166 181 178 183 145 165 157 158 174 179 185 184 171 185 169 167 163 160
182 208 226 257 232 211 241 249 259 269 271 242 188 210 149 158 167 151 188 184 187 187 182 179 170 161 171 179 158 159 154 151 155 160 141 136 135 167 137 139 190 170 195 178 171 170 139 147 167
194 242 220 275 290 329 252 202 233 219 244 228 183 185 169 155 171 175 177 193 186 192 194 184 179 172 176 169 170 166 159 162 165 166 157 146 151 157 157 152 179 171 158 171 143 152 162 164 184
214 267 262 242 267 238 289 263 225 257 256 266 187 148 155 165 198 184 171 185 189 192 195 189 180 183 183 172 172 169 183 180 171 166 164 152 165 167 155 180 186 190 159 177 171 170 181 184 201
233 286 273 252 237 226 196 263 123 262 264 271 180 155 171 187 193 181 189 180 187 191 192 185 186 183 189 183 178 188 186 180 172 175 177 170 168 175 174 179 190 201 193 181 184 182 186 207 212
301 320 330 310 16 285 152 310 236 281 300 273 146 169 181 199 189 195 192 203 181 187 181 185 182 180 185 191 186 186 189 182 183 185 177 180 177 178 177 183 191 200 197 188 172 173 172 213 227
21 51 348 293 347 324 100 270 285 329 334 262 180 183 192 204 214 182 194 200 194 187 186 182 182 180 182 185 186 192 191 190 192 185 183 190 187 182 174 178 197 181 180 186 191 181 201 225 226
10 261 276 317 185 33 63 290 278 325 327 310 191 201 203 211 224 193 180 190 189 193 193 186 188 185 183 185 176 186 183 194 193 187 191 194 188 181 185 191 193 174 181 189 191 201 192 198 217
247 304 281 248 275 349 330 267 296 317 316 300 261 198 209 213 224 147 163 180 186 189 188 191 188 190 187 185 182 181 168 196 192 194 198 190 193 192 190 193 191 177 186 191 191 206 201 206 207
189 207 258 267 254 5 286 289 306 322 357 9 355 242 223 225 318 169 208 179 184 185 191 186 187 188 180 184 186 191 194 190 202 202 198 192 191 190 191 196 196 189 199 204 202 191 214 224 191
223 252 265 286 302 146 312 298 18 6 354 355 37 26 308 354 193 202 228 211 190 190 194 194 190 185 187 187 195 194 195 206 198 198 206 190 189 192 190 195 196 193 200 203 198 191 191 217 174
198 184 227 215 3 356 333 326 58 326 6 357 19 33 27 33 60 341 238 215 199 198 201 195 193 191 184 193 180 148 125 94 161 197 211 211 192 193 198 197 198 194 193 204 199 199 193 201 191
197 211 230 303 40 257 56 271 9 333 5 2 351 354 347 2 138 327 343 322 242 224 203 197 190 190 191 185 190 191 192 190 195 201 195 200 206 198 196 198 201 198 197 204 201 195 208 175 190
228 80 169 151 189 84 328 83 273 88 18 346 338 339 331 338 340 339 352 311 306 356 220 201 194 194 191 187 192 194 204 195 166 168 180 196 198 207 208 202 200 204 198 207 198 193 203 207 175
331 118 45 58 88 45 229 131 279 246 185 277 271 303 317 324 333 328 322 333 342 344 348 207 194 199 194 191 193 196 199 197 180 171 180 190 197 200 205 202 202 204 205 207 206 203 207 222 237
56 50 356 359 9 220 265 65 238 216 203 216 249 282 293 312 322 323 332 336 341 329 311 300 210 198 192 193 195 196 195 192 188 183 183 180 191 204 208 196 199 200 204 208 193 190 194 199 219
44 119 153 235 213 253 93 233 260 211 179 253 276 281 281 285 304 318 323 327 325 320 317 332 217 203 192 193 199 203 201 194 193 185 185 191 195 206 195 196 205 207 200 201 192 198 205 194 227
346 40 186 120 17 62 260 289 325 163 290 312 312 316 319 329 320 313 312 311 309 321 321 339 321 204 192 193 196 204 204 203 199 194 188 190 200 202 196 189 204 211 209 191 182 207 213 201 210
98 162 38 10 326 292 309 295 241 248 265 281 298 308 317 303 316 314 321 326 313 321 303 344 4 59 183 185 198 201 209 213 209 194 197 188 187 201 192 190 197 206 205 194 187 195 200 193 205
7 20 60 112 125 159 296 277 215 265 279 265 278 292 299 305 315 320 330 326 317 325 316 333 353 357 3 270 213 209 225 220 215 200 204 199 176 185 190 198 195 199 202 198 193 197 187 194 202
215 125 117 118 273 223 173 263 271 243 266 284 289 288 295 295 299 299 311 324 335 342 338 338 331 333 325 310 274 257 251 241 210 213 207 185 188 182 193 201 206 200 200 196 197 199 195 196 202